Location: Boston
(42.3580°N, 71.0600°W)
Time: 01:54:58
(UTC-04:00)

OTV 5 (USA 277) - Pass Details

Date: 09 October 2017
Orbit: 404 x 417 km, 43.0° (Epoch: 07 September)

Event Time Altitude Azimuth Distance (km) Brightness Sun altitude
Rises 18:58:16 0° 210° (SSW) 2,342 ? -9.4°
Reaches altitude 10° 19:00:52 10° 190° (S) 1,483 ? -9.9°
Maximum altitude 19:03:08 17° 147° (SSE) 1,132 ? -10.3°
Enters shadow 19:04:34 14° 117° (ESE) 1,285 ? -10.6°
